Location: Tierra del Sol
(32.6128°N, 116.3319°W)
Time: 14:12:36
(UTC-07:00)

ISS - Pass Details

Date: 15 October 2017
Orbit: 401 x 408 km, 51.6° (Epoch: 23 October)

Event Time Altitude Azimuth Distance (km) Brightness Sun altitude
Rises 20:18:08 0° 297° (WNW) 2,321 1.1 -27.3°
Reaches altitude 10° 20:20:38 10° 278° (W) 1,459 0.0 -27.8°
Enters shadow 20:22:08 17° 252° (WSW) 1,125 -0.9 -28.1°
